Всё
Briscoes Catarina Ranch Airport (Catarina, TX) 1TE1 Погода
There is no TAF data available at 1TE1 or any nearby airports.
There is no METAR data available at 1TE1. Showing METAR data for KCZT (19 mi С).
Недавняя история METAR для CZT (для 1TE1 данные отсутствуют)
| Date | Time (CDT) | Flight Rules | Wind Dir. | Speed | Type | Height AGL (ft) | Visibility | Temp (°C) | Temp (°F) | Dew Point (°C) | Dew Point (°F) | Rel. Humid. | Pressure | Density Altitude | Remarks |
|---|---|---|---|---|---|---|---|---|---|---|---|---|---|---|---|
| 05-май | 05:35 | VFR | 180° | 9 kt | 10 miles | 22° | 71° | 22° | 71° | 100% | 29.75 in Hg | 1,608 ft | |||
| 05-май | 05:15 | VFR | 170° | 6 kt | 10 miles | 21° | 69° | 21° | 69° | 100% | 29.75 in Hg | 1,488 ft | |||
| 05-май | 04:55 | VFR | 170° | 6 kt | 10 miles | 21° | 69° | 21° | 69° | 100% | 29.75 in Hg | 1,488 ft | |||
| 05-май | 04:35 | VFR | 140° | 3 kt | 10 miles | 21° | 69° | 21° | 69° | 100% | 29.75 in Hg | 1,488 ft | |||
| 05-май | 04:15 | VFR | 150° | 3 kt | 10 miles | 20° | 68° | 20° | 68° | 100% | 29.75 in Hg | 1,368 ft | |||
| 05-май | 03:55 | VFR | 140° | 4 kt | 10 miles | 20° | 68° | 20° | 68° | 100% | 29.75 in Hg | 1,368 ft | |||
| 05-май | 03:15 | VFR | 150° | 3 kt | 10 miles | 20° | 68° | 20° | 68° | 100% | 29.76 in Hg | 1,358 ft | |||
| 05-май | 02:55 | VFR | 150° | 3 kt | 10 miles | 20° | 68° | 20° | 68° | 100% | 29.77 in Hg | 1,348 ft | |||
| 05-май | 02:15 | VFR | 150° | 5 kt | 10 miles | 21° | 69° | 21° | 69° | 100% | 29.78 in Hg | 1,458 ft | |||
| 05-май | 01:55 | VFR | 140° | 4 kt | 10 miles | 21° | 69° | 21° | 69° | 100% | 29.79 in Hg | 1,448 ft | |||
| 05-май | 01:35 | VFR | 150° | 5 kt | 10 miles | 21° | 69° | 21° | 69° | 100% | 29.80 in Hg | 1,438 ft | |||
| 05-май | 01:15 | VFR | 140° | 4 kt | 10 miles | 21° | 69° | 21° | 69° | 100% | 29.81 in Hg | 1,428 ft | |||
| 05-май | 00:15 | VFR | 150° | 3 kt | 10 miles | 21° | 69° | 21° | 69° | 100% | 29.82 in Hg | 1,418 ft | |||
| 04-май | 23:55 | VFR | 150° | 3 kt | 10 miles | 21° | 69° | 21° | 69° | 100% | 29.82 in Hg | 1,418 ft | |||
| 04-май | 23:15 | VFR | Calm | 10 miles | 22° | 71° | 20° | 68° | 88% | 29.82 in Hg | 1,538 ft | ||||
| 04-май | 22:55 | VFR | 130° | 3 kt | 10 miles |
22° | 71° | 19° | 66° | 83% | 29.81 in Hg | 1,548 ft | |||
| 04-май | 22:15 | VFR | 150° | 3 kt | 7 miles |
22° | 71° | 18° | 64° | 78% | 29.81 in Hg | 1,548 ft | |||
| 04-май | 21:55 | VFR | Calm | 10 miles | 23° | 73° | 18° | 64° | 73% | 29.81 in Hg | 1,668 ft | ||||
| 04-май | 21:35 | VFR | 150° | 3 kt | 10 miles | 23° | 73° | 18° | 64° | 73% | 29.80 in Hg | 1,678 ft | |||
| 04-май | 21:15 | VFR | 140° | 3 kt | 10 miles | 24° | 75° | 18° | 64° | 69% | 29.79 in Hg | 1,808 ft | |||
| 04-май | 20:55 | VFR | 140° | 4 kt | 10 miles |
24° | 75° | 18° | 64° | 69% | 29.79 in Hg | 1,808 ft | |||
| 04-май | 20:15 | VFR | 150° | 4 kt | 7 miles | 26° | 78° | 17° | 62° | 58% | 29.79 in Hg | 2,048 ft | |||
| 04-май | 19:55 | VFR | 150° | 7 kt | 7 miles |
27° | 80° | 17° | 62° | 54% | 29.78 in Hg | 2,178 ft | |||
| 04-май | 19:35 | VFR | 150° | 7 kt | 10 miles | 27° | 80° | 17° | 62° | 54% | 29.79 in Hg | 2,168 ft |
Вход
| Ваш браузер не поддерживается.. обновите веб-браузер |
